Location: Recife
(8.0585°S, 34.8848°W)
Time: 13:55:08
(UTC-03:00)

Tiros 1 despin weight - Pass Details

Date: 16 April 2026
Orbit: 555 x 591 km, 48.2° (Epoch: 14 May)

Event Time Altitude Azimuth Distance (km) Brightness Sun altitude
Rises 13:10:42 0° 251° (WSW) 2,727 ? 56.8°
Reaches altitude 10° 13:13:58 10° 278° (W) 1,828 ? 56.1°
Maximum altitude 13:16:01 13° 308° (NW) 1,621 ? 55.6°
Drops below altitude 10° 13:18:04 10° 338° (NNW) 1,826 ? 55.2°
Sets 13:21:21 0° 5° (N) 2,719 ? 54.5°
